Epoch = 2008 Feb. 24.0 TT T = 2008 Feb. 7.1544 TT Peri. = 11.7159 e = 0.433828 Node = 24.3420 2000.0 q = 2.137870 AU Incl. = 19.3785 a = 3.776006 AU n = 0.1343244 P = 7.34 years
m1 = 12.5 + 5 logΔ + 15.0 log r